owner,sensor,date,latitude,longitude,vertical_datum,direction_of_sea_water_velocity,sea_water_speed,upward_sea_water_velocity,qcFlag 
ADCP,ioos:station:wmo:42890:1,2009-06-01T00:00:00Z,27.6250,-90.4410,15.2,197.0,11.9,-9999.0,'11111222,11111222,99999999' 
ADCP,ioos:station:wmo:42890:1,2009-06-01T00:20:00Z,27.6250,-90.4410,15.2,203.0,10.3,-9999.0,'11111222,11111222,99999999' 
ADCP,ioos:station:wmo:42890:1,2009-06-01T00:40:00Z,27.6250,-90.4410,15.2,193.0,9.1,-9999.0,'11133222,11111222,99999999' 
ADCP,ioos:station:wmo:42890:1,2009-06-01T01:00:00Z,27.6250,-90.4410,15.2,170.0,7.6,-9999.0,'11133222,11111222,99999999' 
ADCP,ioos:station:wmo:42890:1,2009-06-01T01:20:00Z,27.6250,-90.4410,15.2,175.0,7.4,-9999.0,'11133222,11111222,99999999' 
ADCP,ioos:station:wmo:42890:1,2009-06-01T01:40:00Z,27.6250,-90.4410,15.2,180.0,7.4,-9999.0,'11133222,11111222,99999999' 
ADCP,ioos:station:wmo:42890:1,2009-06-01T02:00:00Z,27.6250,-90.4410,15.2,179.0,6.9,-9999.0,'11133222,11111222,99999999' 
ADCP,ioos:station:wmo:42890:1,2009-06-01T02:20:00Z,27.6250,-90.4410,15.2,197.0,8.8,-9999.0,'11133222,11111222,99999999' 
ADCP,ioos:station:wmo:42890:1,2009-06-01T02:40:00Z,27.6250,-90.4410,15.2,188.0,8.1,-9999.0,'11133222,11111222,99999999' 
ADCP,ioos:station:wmo:42890:1,2009-06-01T03:00:00Z,27.6250,-90.4410,15.2,203.0,8.5,-9999.0,'11133222,11111222,99999999' 
ADCP,ioos:station:wmo:42890:1,2009-06-01T03:20:00Z,27.6250,-90.4410,15.2,192.0,5.5,-9999.0,'11133222,11111222,99999999' 
ADCP,ioos:station:wmo:42890:1,2009-06-01T03:40:00Z,27.6250,-90.4410,15.2,173.0,5.0,-9999.0,'11133222,11111222,99999999' 
ADCP,ioos:station:wmo:42890:1,2009-06-01T04:00:00Z,27.6250,-90.4410,15.2,167.0,4.9,-9999.0,'11133222,11111222,99999999' 
ADCP,ioos:station:wmo:42890:1,2009-06-01T04:20:00Z,27.6250,-90.4410,15.2,193.0,3.5,-9999.0,'11133222,11111222,99999999' 
ADCP,ioos:station:wmo:42890:1,2009-06-01T04:40:00Z,27.6250,-90.4410,15.2,171.0,3.9,-9999.0,'11133222,11111222,99999999' 
ADCP,ioos:station:wmo:42890:1,2009-06-01T05:00:00Z,27.6250,-90.4410,15.2,201.0,3.4,-9999.0,'11133222,11111222,99999999' 
ADCP,ioos:station:wmo:42890:1,2009-06-01T05:20:00Z,27.6250,-90.4410,15.2,161.0,2.8,-9999.0,'11133222,11111222,99999999' 
ADCP,ioos:station:wmo:42890:1,2009-06-01T05:40:00Z,27.6250,-90.4410,15.2,221.0,3.0,-9999.0,'11133222,11111222,99999999' 
ADCP,ioos:station:wmo:42890:1,2009-06-01T06:00:00Z,27.6250,-90.4410,15.2,234.0,4.8,-9999.0,'11133222,11111222,99999999' 
ADCP,ioos:station:wmo:42890:1,2009-06-01T06:20:00Z,27.6250,-90.4410,15.2,246.0,2.7,-9999.0,'11133222,11111222,99999999' 
ADCP,ioos:station:wmo:42890:1,2009-06-01T06:40:00Z,27.6250,-90.4410,15.2,68.0,1.8,-9999.0,'11133222,11111222,99999999' 
ADCP,ioos:station:wmo:42890:1,2009-06-01T07:00:00Z,27.6250,-90.4410,15.2,43.0,1.6,-9999.0,'11133222,11111222,99999999' 
ADCP,ioos:station:wmo:42890:1,2009-06-01T07:20:00Z,27.6250,-90.4410,15.2,180.0,2.0,-9999.0,'11133222,11111222,99999999' 
ADCP,ioos:station:wmo:42890:1,2009-06-01T07:40:00Z,27.6250,-90.4410,15.2,180.0,2.3,-9999.0,'11133222,11111222,99999999' 
ADCP,ioos:station:wmo:42890:1,2009-06-01T08:00:00Z,27.6250,-90.4410,15.2,203.0,2.8,-9999.0,'11133222,11111222,99999999' 
ADCP,ioos:station:wmo:42890:1,2009-06-01T08:20:00Z,27.6250,-90.4410,15.2,201.0,4.3,-9999.0,'11133222,11111222,99999999' 
ADCP,ioos:station:wmo:42890:1,2009-06-01T08:40:00Z,27.6250,-90.4410,15.2,201.0,4.8,-9999.0,'11133222,11111222,99999999' 
ADCP,ioos:station:wmo:42890:1,2009-06-01T09:00:00Z,27.6250,-90.4410,15.2,170.0,4.6,-9999.0,'11133222,11111222,99999999' 
ADCP,ioos:station:wmo:42890:1,2009-06-01T09:20:00Z,27.6250,-90.4410,15.2,178.0,4.8,-9999.0,'11133222,11111222,99999999' 
ADCP,ioos:station:wmo:42890:1,2009-06-01T09:40:00Z,27.6250,-90.4410,15.2,211.0,8.9,-9999.0,'11133222,11111222,99999999' 
ADCP,ioos:station:wmo:42890:1,2009-06-01T10:00:00Z,27.6250,-90.4410,15.2,207.0,9.4,-9999.0,'11133222,11111222,99999999' 
ADCP,ioos:station:wmo:42890:1,2009-06-01T10:20:00Z,27.6250,-90.4410,15.2,147.0,8.7,-9999.0,'11133222,11111222,99999999' 
ADCP,ioos:station:wmo:42890:1,2009-06-01T10:40:00Z,27.6250,-90.4410,15.2,177.0,5.9,-9999.0,'11133222,11111222,99999999' 
ADCP,ioos:station:wmo:42890:1,2009-06-01T11:00:00Z,27.6250,-90.4410,15.2,199.0,9.2,-9999.0,'11133222,11111222,99999999' 
ADCP,ioos:station:wmo:42890:1,2009-06-01T11:20:00Z,27.6250,-90.4410,15.2,144.0,6.2,-9999.0,'11133222,11111222,99999999' 
ADCP,ioos:station:wmo:42890:1,2009-06-01T11:40:00Z,27.6250,-90.4410,15.2,148.0,5.1,-9999.0,'11133222,11111222,99999999' 
ADCP,ioos:station:wmo:42890:1,2009-06-01T12:00:00Z,27.6250,-90.4410,15.2,142.0,6.1,-9999.0,'11133222,11111222,99999999' 
ADCP,ioos:station:wmo:42890:1,2009-06-01T12:20:00Z,27.6250,-90.4410,15.2,148.0,5.8,-9999.0,'11133222,11111222,99999999' 
ADCP,ioos:station:wmo:42890:1,2009-06-01T12:40:00Z,27.6250,-90.4410,15.2,155.0,5.3,-9999.0,'11133222,11111222,99999999' 
ADCP,ioos:station:wmo:42890:1,2009-06-01T13:00:00Z,27.6250,-90.4410,15.2,179.0,5.8,-9999.0,'11133222,11111222,99999999' 
ADCP,ioos:station:wmo:42890:1,2009-06-01T13:20:00Z,27.6250,-90.4410,15.2,180.0,6.4,-9999.0,'11133222,11111222,99999999' 
ADCP,ioos:station:wmo:42890:1,2009-06-01T13:40:00Z,27.6250,-90.4410,15.2,169.0,7.3,-9999.0,'11133222,11111222,99999999' 
ADCP,ioos:station:wmo:42890:1,2009-06-01T14:00:00Z,27.6250,-90.4410,15.2,171.0,8.4,-9999.0,'11133222,11111222,99999999' 
ADCP,ioos:station:wmo:42890:1,2009-06-01T14:20:00Z,27.6250,-90.4410,15.2,161.0,10.0,-9999.0,'11111222,11111222,99999999' 
ADCP,ioos:station:wmo:42890:1,2009-06-01T14:40:00Z,27.6250,-90.4410,15.2,197.0,10.7,-9999.0,'11111222,11111222,99999999' 
ADCP,ioos:station:wmo:42890:1,2009-06-01T15:00:00Z,27.6250,-90.4410,15.2,198.0,12.6,-9999.0,'11111222,11111222,99999999' 
ADCP,ioos:station:wmo:42890:1,2009-06-01T15:20:00Z,27.6250,-90.4410,15.2,211.0,13.7,-9999.0,'11111222,11111222,99999999' 
ADCP,ioos:station:wmo:42890:1,2009-06-01T15:40:00Z,27.6250,-90.4410,15.2,212.0,13.5,-9999.0,'11111222,11111222,99999999' 
ADCP,ioos:station:wmo:42890:1,2009-06-01T16:00:00Z,27.6250,-90.4410,15.2,209.0,11.0,-9999.0,'11111222,11111222,99999999' 
ADCP,ioos:station:wmo:42890:1,2009-06-01T16:20:00Z,27.6250,-90.4410,15.2,213.0,11.5,-9999.0,'11111222,11111222,99999999' 
ADCP,ioos:station:wmo:42890:1,2009-06-01T16:40:00Z,27.6250,-90.4410,15.2,225.0,9.7,-9999.0,'11133222,11111222,99999999' 
ADCP,ioos:station:wmo:42890:1,2009-06-01T17:00:00Z,27.6250,-90.4410,15.2,216.0,11.1,-9999.0,'11111222,11111222,99999999' 
ADCP,ioos:station:wmo:42890:1,2009-06-01T17:20:00Z,27.6250,-90.4410,15.2,214.0,11.5,-9999.0,'11111222,11111222,99999999' 
ADCP,ioos:station:wmo:42890:1,2009-06-01T17:40:00Z,27.6250,-90.4410,15.2,187.0,11.2,-9999.0,'11111222,11111222,99999999' 
ADCP,ioos:station:wmo:42890:1,2009-06-01T18:00:00Z,27.6250,-90.4410,15.2,202.0,10.6,-9999.0,'11111222,11111222,99999999' 
ADCP,ioos:station:wmo:42890:1,2009-06-01T18:20:00Z,27.6250,-90.4410,15.2,195.0,11.9,-9999.0,'11111222,11111222,99999999' 
ADCP,ioos:station:wmo:42890:1,2009-06-01T18:40:00Z,27.6250,-90.4410,15.2,177.0,10.7,-9999.0,'11111222,11111222,99999999' 
ADCP,ioos:station:wmo:42890:1,2009-06-01T19:00:00Z,27.6250,-90.4410,15.2,169.0,13.3,-9999.0,'11111222,11111222,99999999' 
ADCP,ioos:station:wmo:42890:1,2009-06-01T19:20:00Z,27.6250,-90.4410,15.2,178.0,14.0,-9999.0,'11111222,11111222,99999999' 
ADCP,ioos:station:wmo:42890:1,2009-06-01T19:40:00Z,27.6250,-90.4410,15.2,149.0,14.6,-9999.0,'11111222,11111222,99999999' 
ADCP,ioos:station:wmo:42890:1,2009-06-01T20:00:00Z,27.6250,-90.4410,15.2,141.0,15.8,-9999.0,'11111222,11111222,99999999' 
ADCP,ioos:station:wmo:42890:1,2009-06-01T20:20:00Z,27.6250,-90.4410,15.2,122.0,22.3,-9999.0,'11111222,11111222,99999999' 
ADCP,ioos:station:wmo:42890:1,2009-06-01T20:40:00Z,27.6250,-90.4410,15.2,128.0,20.9,-9999.0,'11111222,11111222,99999999' 
ADCP,ioos:station:wmo:42890:1,2009-06-01T21:00:00Z,27.6250,-90.4410,15.2,127.0,22.8,-9999.0,'11111222,11111222,99999999' 
ADCP,ioos:station:wmo:42890:1,2009-06-01T21:20:00Z,27.6250,-90.4410,15.2,144.0,18.5,-9999.0,'11111222,11111222,99999999' 
ADCP,ioos:station:wmo:42890:1,2009-06-01T21:40:00Z,27.6250,-90.4410,15.2,145.0,17.3,-9999.0,'11111222,11111222,99999999' 
ADCP,ioos:station:wmo:42890:1,2009-06-01T22:00:00Z,27.6250,-90.4410,15.2,150.0,16.1,-9999.0,'11111222,11111222,99999999' 
ADCP,ioos:station:wmo:42890:1,2009-06-01T22:20:00Z,27.6250,-90.4410,15.2,176.0,19.5,-9999.0,'11111222,11111222,99999999' 
ADCP,ioos:station:wmo:42890:1,2009-06-01T22:40:00Z,27.6250,-90.4410,15.2,177.0,15.8,-9999.0,'11111222,11111222,99999999' 
ADCP,ioos:station:wmo:42890:1,2009-06-01T23:00:00Z,27.6250,-90.4410,15.2,152.0,16.6,-9999.0,'11111222,11111222,99999999' 
ADCP,ioos:station:wmo:42890:1,2009-06-01T23:20:00Z,27.6250,-90.4410,15.2,168.0,17.6,-9999.0,'11111222,11111222,99999999' 
ADCP,ioos:station:wmo:42890:1,2009-06-01T23:40:00Z,27.6250,-90.4410,15.2,178.0,16.8,-9999.0,'11111222,11111222,99999999' 
ADCP,ioos:station:wmo:42890:1,2009-06-02T00:00:00Z,27.6250,-90.4410,15.2,180.0,15.8,-9999.0,'11111222,11111222,99999999' 
ADCP,ioos:station:wmo:42890:1,2009-06-02T00:20:00Z,27.6250,-90.4410,15.2,222.0,12.7,-9999.0,'11111222,11111222,99999999' 
ADCP,ioos:station:wmo:42890:1,2009-06-02T00:40:00Z,27.6250,-90.4410,15.2,222.0,12.0,-9999.0,'11111222,11111222,99999999' 
ADCP,ioos:station:wmo:42890:1,2009-06-02T01:00:00Z,27.6250,-90.4410,15.2,212.0,8.9,-9999.0,'11133222,11111222,99999999' 
ADCP,ioos:station:wmo:42890:1,2009-06-02T01:20:00Z,27.6250,-90.4410,15.2,229.0,12.3,-9999.0,'11111222,11111222,99999999' 
ADCP,ioos:station:wmo:42890:1,2009-06-02T01:40:00Z,27.6250,-90.4410,15.2,226.0,7.9,-9999.0,'11133222,11111222,99999999' 
ADCP,ioos:station:wmo:42890:1,2009-06-02T02:00:00Z,27.6250,-90.4410,15.2,218.0,7.8,-9999.0,'11133222,11111222,99999999' 
ADCP,ioos:station:wmo:42890:1,2009-06-02T02:20:00Z,27.6250,-90.4410,15.2,210.0,7.0,-9999.0,'11133222,11111222,99999999' 
ADCP,ioos:station:wmo:42890:1,2009-06-02T02:40:00Z,27.6250,-90.4410,15.2,223.0,6.8,-9999.0,'11133222,11111222,99999999' 
ADCP,ioos:station:wmo:42890:1,2009-06-02T03:00:00Z,27.6250,-90.4410,15.2,239.0,6.4,-9999.0,'11133222,11111222,99999999' 
ADCP,ioos:station:wmo:42890:1,2009-06-02T03:20:00Z,27.6250,-90.4410,15.2,207.0,6.2,-9999.0,'11133222,11111222,99999999' 
ADCP,ioos:station:wmo:42890:1,2009-06-02T03:40:00Z,27.6250,-90.4410,15.2,211.0,6.1,-9999.0,'11133222,11111222,99999999' 
ADCP,ioos:station:wmo:42890:1,2009-06-02T04:00:00Z,27.6250,-90.4410,15.2,220.0,8.4,-9999.0,'11133222,11111222,99999999' 
ADCP,ioos:station:wmo:42890:1,2009-06-02T04:20:00Z,27.6250,-90.4410,15.2,208.0,8.1,-9999.0,'11133222,11111222,99999999' 
ADCP,ioos:station:wmo:42890:1,2009-06-02T04:40:00Z,27.6250,-90.4410,15.2,197.0,7.7,-9999.0,'11133222,11111222,99999999' 
ADCP,ioos:station:wmo:42890:1,2009-06-02T05:00:00Z,27.6250,-90.4410,15.2,238.0,7.6,-9999.0,'11133222,11111222,99999999' 
ADCP,ioos:station:wmo:42890:1,2009-06-02T05:20:00Z,27.6250,-90.4410,15.2,227.0,7.2,-9999.0,'11133222,11111222,99999999' 
ADCP,ioos:station:wmo:42890:1,2009-06-02T05:40:00Z,27.6250,-90.4410,15.2,215.0,7.0,-9999.0,'11133222,11111222,99999999' 
ADCP,ioos:station:wmo:42890:1,2009-06-02T06:00:00Z,27.6250,-90.4410,15.2,162.0,8.9,-9999.0,'11133222,11111222,99999999' 
ADCP,ioos:station:wmo:42890:1,2009-06-02T06:20:00Z,27.6250,-90.4410,15.2,152.0,3.6,-9999.0,'11133222,11111222,99999999' 
ADCP,ioos:station:wmo:42890:1,2009-06-02T06:40:00Z,27.6250,-90.4410,15.2,139.0,4.0,-9999.0,'11133222,11111222,99999999' 
ADCP,ioos:station:wmo:42890:1,2009-06-02T07:00:00Z,27.6250,-90.4410,15.2,274.0,3.0,-9999.0,'11133222,11111222,99999999' 
ADCP,ioos:station:wmo:42890:1,2009-06-02T07:20:00Z,27.6250,-90.4410,15.2,252.0,6.2,-9999.0,'11133222,11111222,99999999' 
ADCP,ioos:station:wmo:42890:1,2009-06-02T07:40:00Z,27.6250,-90.4410,15.2,290.0,4.0,-9999.0,'11133222,11111222,99999999' 
ADCP,ioos:station:wmo:42890:1,2009-06-02T08:00:00Z,27.6250,-90.4410,15.2,331.0,4.3,-9999.0,'11133222,11111222,99999999' 
ADCP,ioos:station:wmo:42890:1,2009-06-02T08:20:00Z,27.6250,-90.4410,15.2,327.0,3.3,-9999.0,'11133222,11111222,99999999' 
ADCP,ioos:station:wmo:42890:1,2009-06-02T08:40:00Z,27.6250,-90.4410,15.2,0.0,2.5,-9999.0,'11133222,11111222,99999999' 
ADCP,ioos:station:wmo:42890:1,2009-06-02T09:00:00Z,27.6250,-90.4410,15.2,17.0,3.4,-9999.0,'11133222,11111222,99999999' 
ADCP,ioos:station:wmo:42890:1,2009-06-02T09:20:00Z,27.6250,-90.4410,15.2,72.0,4.8,-9999.0,'11133222,11111222,99999999' 
ADCP,ioos:station:wmo:42890:1,2009-06-02T09:40:00Z,27.6250,-90.4410,15.2,79.0,7.4,-9999.0,'11133222,11111222,99999999' 
ADCP,ioos:station:wmo:42890:1,2009-06-02T10:00:00Z,27.6250,-90.4410,15.2,85.0,9.0,-9999.0,'11133222,11111222,99999999' 
ADCP,ioos:station:wmo:42890:1,2009-06-02T10:20:00Z,27.6250,-90.4410,15.2,89.0,10.4,-9999.0,'11111222,11111222,99999999' 
ADCP,ioos:station:wmo:42890:1,2009-06-02T10:40:00Z,27.6250,-90.4410,15.2,98.0,11.0,-9999.0,'11111222,11111222,99999999' 
ADCP,ioos:station:wmo:42890:1,2009-06-02T11:00:00Z,27.6250,-90.4410,15.2,109.0,11.0,-9999.0,'11111222,11111222,99999999' 
ADCP,ioos:station:wmo:42890:1,2009-06-02T11:20:00Z,27.6250,-90.4410,15.2,138.0,11.0,-9999.0,'11111222,11111222,99999999' 
ADCP,ioos:station:wmo:42890:1,2009-06-02T11:40:00Z,27.6250,-90.4410,15.2,194.0,8.1,-9999.0,'11133222,11111222,99999999' 
ADCP,ioos:station:wmo:42890:1,2009-06-02T12:00:00Z,27.6250,-90.4410,15.2,199.0,8.4,-9999.0,'11133222,11111222,99999999' 
ADCP,ioos:station:wmo:42890:1,2009-06-02T12:20:00Z,27.6250,-90.4410,15.2,146.0,8.8,-9999.0,'11133222,11111222,99999999' 
ADCP,ioos:station:wmo:42890:1,2009-06-02T12:40:00Z,27.6250,-90.4410,15.2,123.0,11.1,-9999.0,'11111222,11111222,99999999' 
ADCP,ioos:station:wmo:42890:1,2009-06-02T13:00:00Z,27.6250,-90.4410,15.2,125.0,11.2,-9999.0,'11111222,11111222,99999999' 
ADCP,ioos:station:wmo:42890:1,2009-06-02T13:20:00Z,27.6250,-90.4410,15.2,124.0,13.9,-9999.0,'11111222,11111222,99999999' 
ADCP,ioos:station:wmo:42890:1,2009-06-02T13:40:00Z,27.6250,-90.4410,15.2,122.0,15.1,-9999.0,'11111222,11111222,99999999' 
ADCP,ioos:station:wmo:42890:1,2009-06-02T14:00:00Z,27.6250,-90.4410,15.2,137.0,12.8,-9999.0,'11111222,11111222,99999999' 
ADCP,ioos:station:wmo:42890:1,2009-06-02T14:20:00Z,27.6250,-90.4410,15.2,172.0,11.7,-9999.0,'11111222,11111222,99999999' 
ADCP,ioos:station:wmo:42890:1,2009-06-02T14:40:00Z,27.6250,-90.4410,15.2,187.0,12.4,-9999.0,'11111222,11111222,99999999' 
ADCP,ioos:station:wmo:42890:1,2009-06-02T15:00:00Z,27.6250,-90.4410,15.2,186.0,11.8,-9999.0,'11111222,11111222,99999999' 
ADCP,ioos:station:wmo:42890:1,2009-06-02T15:20:00Z,27.6250,-90.4410,15.2,218.0,13.5,-9999.0,'11111222,11111222,99999999' 
ADCP,ioos:station:wmo:42890:1,2009-06-02T15:40:00Z,27.6250,-90.4410,15.2,217.0,12.9,-9999.0,'11111222,11111222,99999999' 
ADCP,ioos:station:wmo:42890:1,2009-06-02T16:00:00Z,27.6250,-90.4410,15.2,216.0,13.1,-9999.0,'11111222,11111222,99999999' 
ADCP,ioos:station:wmo:42890:1,2009-06-02T16:20:00Z,27.6250,-90.4410,15.2,213.0,13.1,-9999.0,'11111222,11111222,99999999' 
ADCP,ioos:station:wmo:42890:1,2009-06-02T16:40:00Z,27.6250,-90.4410,15.2,214.0,14.9,-9999.0,'11111222,11111222,99999999' 
ADCP,ioos:station:wmo:42890:1,2009-06-02T17:00:00Z,27.6250,-90.4410,15.2,212.0,14.9,-9999.0,'11111222,11111222,99999999' 
ADCP,ioos:station:wmo:42890:1,2009-06-02T17:20:00Z,27.6250,-90.4410,15.2,212.0,15.3,-9999.0,'11111222,11111222,99999999' 
ADCP,ioos:station:wmo:42890:1,2009-06-02T17:40:00Z,27.6250,-90.4410,15.2,207.0,13.2,-9999.0,'11111222,11111222,99999999' 
ADCP,ioos:station:wmo:42890:1,2009-06-02T18:00:00Z,27.6250,-90.4410,15.2,207.0,15.8,-9999.0,'11111222,11111222,99999999' 
ADCP,ioos:station:wmo:42890:1,2009-06-02T18:20:00Z,27.6250,-90.4410,15.2,204.0,16.8,-9999.0,'11111222,11111222,99999999' 
ADCP,ioos:station:wmo:42890:1,2009-06-02T18:40:00Z,27.6250,-90.4410,15.2,208.0,15.4,-9999.0,'11111222,11111222,99999999' 
ADCP,ioos:station:wmo:42890:1,2009-06-02T19:00:00Z,27.6250,-90.4410,15.2,229.0,19.0,-9999.0,'11111222,11111222,99999999' 
ADCP,ioos:station:wmo:42890:1,2009-06-02T19:20:00Z,27.6250,-90.4410,15.2,239.0,21.1,-9999.0,'11111222,11111222,99999999' 
ADCP,ioos:station:wmo:42890:1,2009-06-02T19:40:00Z,27.6250,-90.4410,15.2,238.0,19.8,-9999.0,'11111222,11111222,99999999' 
ADCP,ioos:station:wmo:42890:1,2009-06-02T20:00:00Z,27.6250,-90.4410,15.2,213.0,17.5,-9999.0,'11111222,11111222,99999999' 
ADCP,ioos:station:wmo:42890:1,2009-06-02T20:20:00Z,27.6250,-90.4410,15.2,220.0,15.9,-9999.0,'11111222,11111222,99999999' 
ADCP,ioos:station:wmo:42890:1,2009-06-02T20:40:00Z,27.6250,-90.4410,15.2,214.0,14.6,-9999.0,'11111222,11111222,99999999' 
ADCP,ioos:station:wmo:42890:1,2009-06-02T21:00:00Z,27.6250,-90.4410,15.2,226.0,15.5,-9999.0,'11111222,11111222,99999999' 
ADCP,ioos:station:wmo:42890:1,2009-06-02T21:20:00Z,27.6250,-90.4410,15.2,206.0,15.1,-9999.0,'11111222,11111222,99999999' 
ADCP,ioos:station:wmo:42890:1,2009-06-02T21:40:00Z,27.6250,-90.4410,15.2,187.0,15.3,-9999.0,'11111222,11111222,99999999' 
ADCP,ioos:station:wmo:42890:1,2009-06-02T22:00:00Z,27.6250,-90.4410,15.2,146.0,17.4,-9999.0,'11111222,11111222,99999999' 
ADCP,ioos:station:wmo:42890:1,2009-06-02T22:20:00Z,27.6250,-90.4410,15.2,150.0,18.0,-9999.0,'11111222,11111222,99999999' 
ADCP,ioos:station:wmo:42890:1,2009-06-02T22:40:00Z,27.6250,-90.4410,15.2,160.0,16.0,-9999.0,'11111222,11111222,99999999' 
ADCP,ioos:station:wmo:42890:1,2009-06-02T23:00:00Z,27.6250,-90.4410,15.2,182.0,8.1,-9999.0,'11133222,11111222,99999999' 
ADCP,ioos:station:wmo:42890:1,2009-06-02T23:20:00Z,27.6250,-90.4410,15.2,202.0,7.3,-9999.0,'11133222,11111222,99999999' 
ADCP,ioos:station:wmo:42890:1,2009-06-02T23:40:00Z,27.6250,-90.4410,15.2,202.0,10.3,-9999.0,'11111222,11111222,99999999' 
ADCP,ioos:station:wmo:42890:1,2009-06-03T00:00:00Z,27.6250,-90.4410,15.2,224.0,12.7,-9999.0,'11111222,11111222,99999999' 
ADCP,ioos:station:wmo:42890:1,2009-06-03T00:20:00Z,27.6250,-90.4410,15.2,204.0,16.0,-9999.0,'11111222,11111222,99999999' 
ADCP,ioos:station:wmo:42890:1,2009-06-03T00:40:00Z,27.6250,-90.4410,15.2,202.0,23.7,-9999.0,'11111222,11111222,99999999' 
ADCP,ioos:station:wmo:42890:1,2009-06-03T01:00:00Z,27.6250,-90.4410,15.2,206.0,27.5,-9999.0,'11111222,11111222,99999999' 
ADCP,ioos:station:wmo:42890:1,2009-06-03T01:20:00Z,27.6250,-90.4410,15.2,205.0,28.6,-9999.0,'11111222,11111222,99999999' 
ADCP,ioos:station:wmo:42890:1,2009-06-03T01:40:00Z,27.6250,-90.4410,15.2,213.0,27.4,-9999.0,'11111222,11111222,99999999' 
ADCP,ioos:station:wmo:42890:1,2009-06-03T02:00:00Z,27.6250,-90.4410,15.2,213.0,21.6,-9999.0,'11111222,11111222,99999999' 
ADCP,ioos:station:wmo:42890:1,2009-06-03T02:20:00Z,27.6250,-90.4410,15.2,213.0,21.0,-9999.0,'11111222,11111222,99999999' 
ADCP,ioos:station:wmo:42890:1,2009-06-03T02:40:00Z,27.6250,-90.4410,15.2,224.0,19.2,-9999.0,'11111222,11111222,99999999' 
ADCP,ioos:station:wmo:42890:1,2009-06-03T03:00:00Z,27.6250,-90.4410,15.2,225.0,18.8,-9999.0,'11111222,11111222,99999999' 
ADCP,ioos:station:wmo:42890:1,2009-06-03T03:20:00Z,27.6250,-90.4410,15.2,215.0,22.8,-9999.0,'11111222,11111222,99999999' 
ADCP,ioos:station:wmo:42890:1,2009-06-03T03:40:00Z,27.6250,-90.4410,15.2,218.0,27.1,-9999.0,'11111222,11111222,99999999' 
ADCP,ioos:station:wmo:42890:1,2009-06-03T04:00:00Z,27.6250,-90.4410,15.2,216.0,27.5,-9999.0,'11111222,11111222,99999999' 
ADCP,ioos:station:wmo:42890:1,2009-06-03T04:20:00Z,27.6250,-90.4410,15.2,212.0,31.4,-9999.0,'11111222,11111222,99999999' 
ADCP,ioos:station:wmo:42890:1,2009-06-03T04:40:00Z,27.6250,-90.4410,15.2,201.0,32.9,-9999.0,'11111222,11111222,99999999' 
ADCP,ioos:station:wmo:42890:1,2009-06-03T05:00:00Z,27.6250,-90.4410,15.2,208.0,34.4,-9999.0,'11111222,11111222,99999999' 
ADCP,ioos:station:wmo:42890:1,2009-06-03T05:20:00Z,27.6250,-90.4410,15.2,202.0,34.1,-9999.0,'11111222,11111222,99999999' 
ADCP,ioos:station:wmo:42890:1,2009-06-03T05:40:00Z,27.6250,-90.4410,15.2,198.0,33.4,-9999.0,'11111222,11111222,99999999' 
ADCP,ioos:station:wmo:42890:1,2009-06-03T06:00:00Z,27.6250,-90.4410,15.2,200.0,30.0,-9999.0,'11111222,11111222,99999999' 
ADCP,ioos:station:wmo:42890:1,2009-06-03T06:20:00Z,27.6250,-90.4410,15.2,209.0,26.8,-9999.0,'11111222,11111222,99999999' 
ADCP,ioos:station:wmo:42890:1,2009-06-03T06:40:00Z,27.6250,-90.4410,15.2,217.0,23.1,-9999.0,'11111222,11111222,99999999' 
ADCP,ioos:station:wmo:42890:1,2009-06-03T07:00:00Z,27.6250,-90.4410,15.2,223.0,23.4,-9999.0,'11111222,11111222,99999999' 
ADCP,ioos:station:wmo:42890:1,2009-06-03T07:20:00Z,27.6250,-90.4410,15.2,229.0,19.1,-9999.0,'11111222,11111222,99999999' 
ADCP,ioos:station:wmo:42890:1,2009-06-03T07:40:00Z,27.6250,-90.4410,15.2,243.0,18.9,-9999.0,'11111222,11111222,99999999' 
ADCP,ioos:station:wmo:42890:1,2009-06-03T08:00:00Z,27.6250,-90.4410,15.2,259.0,15.5,-9999.0,'11111222,11111222,99999999' 
ADCP,ioos:station:wmo:42890:1,2009-06-03T08:20:00Z,27.6250,-90.4410,15.2,270.0,16.6,-9999.0,'11111222,11111222,99999999' 
ADCP,ioos:station:wmo:42890:1,2009-06-03T08:40:00Z,27.6250,-90.4410,15.2,301.0,12.5,-9999.0,'11111222,11111222,99999999' 
ADCP,ioos:station:wmo:42890:1,2009-06-03T09:00:00Z,27.6250,-90.4410,15.2,287.0,22.3,-9999.0,'11111222,11111222,99999999' 
ADCP,ioos:station:wmo:42890:1,2009-06-03T09:20:00Z,27.6250,-90.4410,15.2,300.0,16.9,-9999.0,'11111222,11111222,99999999' 
ADCP,ioos:station:wmo:42890:1,2009-06-03T09:40:00Z,27.6250,-90.4410,15.2,286.0,19.7,-9999.0,'11111222,11111222,99999999' 
ADCP,ioos:station:wmo:42890:1,2009-06-03T10:00:00Z,27.6250,-90.4410,15.2,297.0,19.9,-9999.0,'11111222,11111222,99999999' 
ADCP,ioos:station:wmo:42890:1,2009-06-03T10:20:00Z,27.6250,-90.4410,15.2,282.0,24.8,-9999.0,'11111222,11111222,99999999' 
ADCP,ioos:station:wmo:42890:1,2009-06-03T10:40:00Z,27.6250,-90.4410,15.2,270.0,23.0,-9999.0,'11111222,11111222,99999999' 
ADCP,ioos:station:wmo:42890:1,2009-06-03T11:00:00Z,27.6250,-90.4410,15.2,267.0,15.5,-9999.0,'11111222,11111222,99999999' 
ADCP,ioos:station:wmo:42890:1,2009-06-03T11:20:00Z,27.6250,-90.4410,15.2,318.0,16.6,-9999.0,'11111222,11111222,99999999' 
ADCP,ioos:station:wmo:42890:1,2009-06-03T11:40:00Z,27.6250,-90.4410,15.2,309.0,16.9,-9999.0,'11111222,11111222,99999999' 
ADCP,ioos:station:wmo:42890:1,2009-06-03T12:00:00Z,27.6250,-90.4410,15.2,315.0,13.1,-9999.0,'11111222,11111222,99999999' 
ADCP,ioos:station:wmo:42890:1,2009-06-03T12:20:00Z,27.6250,-90.4410,15.2,326.0,12.7,-9999.0,'11111222,11111222,99999999' 
ADCP,ioos:station:wmo:42890:1,2009-06-03T12:40:00Z,27.6250,-90.4410,15.2,346.0,12.7,-9999.0,'11111222,11111222,99999999' 
ADCP,ioos:station:wmo:42890:1,2009-06-03T13:00:00Z,27.6250,-90.4410,15.2,345.0,11.8,-9999.0,'11111222,11111222,99999999' 
ADCP,ioos:station:wmo:42890:1,2009-06-03T13:20:00Z,27.6250,-90.4410,15.2,345.0,12.0,-9999.0,'11111222,11111222,99999999' 
ADCP,ioos:station:wmo:42890:1,2009-06-03T13:40:00Z,27.6250,-90.4410,15.2,8.0,10.4,-9999.0,'11111222,11111222,99999999' 
ADCP,ioos:station:wmo:42890:1,2009-06-03T14:00:00Z,27.6250,-90.4410,15.2,2.0,11.1,-9999.0,'11111222,11111222,99999999' 
ADCP,ioos:station:wmo:42890:1,2009-06-03T14:20:00Z,27.6250,-90.4410,15.2,8.0,11.4,-9999.0,'11111222,11111222,99999999' 
ADCP,ioos:station:wmo:42890:1,2009-06-03T14:40:00Z,27.6250,-90.4410,15.2,10.0,8.8,-9999.0,'11133222,11111222,99999999' 
ADCP,ioos:station:wmo:42890:1,2009-06-03T15:00:00Z,27.6250,-90.4410,15.2,344.0,9.1,-9999.0,'11133222,11111222,99999999' 
ADCP,ioos:station:wmo:42890:1,2009-06-03T15:20:00Z,27.6250,-90.4410,15.2,358.0,9.3,-9999.0,'11133222,11111222,99999999' 
ADCP,ioos:station:wmo:42890:1,2009-06-03T15:40:00Z,27.6250,-90.4410,15.2,16.0,9.9,-9999.0,'11133222,11111222,99999999' 
ADCP,ioos:station:wmo:42890:1,2009-06-03T16:00:00Z,27.6250,-90.4410,15.2,7.0,6.5,-9999.0,'11133222,11111222,99999999' 
ADCP,ioos:station:wmo:42890:1,2009-06-03T16:20:00Z,27.6250,-90.4410,15.2,0.0,5.2,-9999.0,'11133222,11111222,99999999' 
ADCP,ioos:station:wmo:42890:1,2009-06-03T16:40:00Z,27.6250,-90.4410,15.2,29.0,6.0,-9999.0,'11133222,11111222,99999999' 
ADCP,ioos:station:wmo:42890:1,2009-06-03T17:00:00Z,27.6250,-90.4410,15.2,68.0,7.6,-9999.0,'11133222,11111222,99999999' 